{"data":{"norad_id":66816,"intl_designator":"2025-278AB","name":"STARLINK-36098","alt_names":[],"object_type":"PAYLOAD","status":"ACTIVE","operator":null,"country":"US","launch_date":"2025-12-01","launch_site_code":"AFETR","launch_vehicle":null,"mission":null,"orbit_class":"UNKNOWN","rcs_meters":null,"size_class":null,"mass_kg":null,"dimensions":null,"purposes":["comms"],"wikipedia_slug":null,"has_3d_model":false,"image_url":null,"decayed_at":null,"tle_current":{"epoch":"2026-05-25T03:00:53.898048Z","epoch_age_seconds":58024,"freshness":"FRESH","line1":"1 66816U 25278AB  26145.12562382  .00049683  00000+0  18002-2 0  9990","line2":"2 66816  43.0024  42.2894 0001990 298.0802  61.9848 15.27627271 26902","mean_motion":15.27627271,"eccentricity":0.000199,"inclination_deg":43.0024,"raan_deg":42.2894,"arg_perigee_deg":298.0802,"mean_anomaly_deg":61.9848,"bstar":0.0018002,"rev_number":2690,"period_min":94.263831717102,"perigee_km":481.54220544392,"apogee_km":484.27290117614,"semimajor_km":6861.04455331,"source":"CELESTRAK","updated_at":"2026-05-25T13:38:21.332400Z"}}}